Regional Weather Roundup
Issued by NWS

Home | Current Version | Previous Version | Graphics & Text | Print | Product List | Glossary Off
Versions: 1 2 3 4 5 6 7 8 9 10 11 12 13 14 15 16 17 18 19 20 21 22 23 24 25 26 27 28 29 30 31 32 33 34 35 36 37 38 39 40 41 42 43 44 45 46 47 48 49 50

201
ASUS43 KMKX 211200
RWRWI

WISCONSIN REGIONAL WEATHER ROUNDUP
NATIONAL WEATHER SERVICE MILWAUKEE/SULLIVAN WI
600 AM CST SAT JAN 21 2017

NOTE: "FAIR" INDICATES FEW OR NO CLOUDS BELOW 12,000 FEET WITH NO
SIGNIFICANT WEATHER AND/OR OBSTRUCTIONS TO VISIBILITY.

WIZ001-002-006>008-014>016-023>028-211300-
NORTHWEST WISCONSIN

CITY           SKY/WX    TMP DP  RH WIND       PRES   REMARKS
SUPERIOR ARPT  CLOUDY    34  34 100 E3        29.54R FOG
ASHLAND        CLOUDY    34  33  96 E3        29.55F
6HR MIN TEMP:  34; 6HR MAX TEMP:  35; 6HR PCP: TRACE;

HAYWARD        CLOUDY    35  33  92 CALM      29.50F FOG
6HR MIN TEMP:  34; 6HR MAX TEMP:  35; 6HR PCP:  0.01;

SIREN          CLOUDY    34  34  99 CALM      29.50F FOG
CUMBERLAND     FOG       32  32 100 E7        29.49S VSB 1/2 WCI  26
RICE LAKE      FOG       34  34 100 E5        29.50F VSB 1   WCI  30
6HR MIN TEMP:  34; 6HR MAX TEMP:  34;

CHETEK         FOG       33  33 100 E3        29.50S VSB 1
LADYSMITH      CLOUDY    35  34  99 E6        29.51F FOG     WCI  30
6HR MIN TEMP:  35; 6HR MAX TEMP:  35;

EAU CLAIRE     CLOUDY    34  34 100 E8        29.47F FOG     WCI  27
MENOMONIE        N/A    N/A N/A N/A MISG        N/A
NEW RICHMOND   CLOUDY    34  34 100 E9        29.46F FOG     WCI  27
OSCEOLA        CLOUDY    35  35 100 E7        29.49F FOG     WCI  29
$$

WIZ003>005-009-010-017-018-211300-
NORTH CENTRAL WISCONSIN

CITY           SKY/WX    TMP DP  RH WIND       PRES   REMARKS
MANITOWISH WTR CLOUDY    32  32 100 SE3       29.53S
ARBOR VITAE    CLOUDY    34  33  96 SE5       29.53F FOG     WCI  30
WOODRUFF       CLOUDY    34  33  96 SE5       29.53F FOG     WCI  30
RHINELANDER    CLOUDY    34  34 100 E8        29.54S WCI  27
6HR MIN TEMP:  33; 6HR MAX TEMP:  34; 6HR PCP: TRACE;

EAGLE RIVER    CLOUDY    32  32 100 E6        29.54F WCI  27
LAND O LAKES   CLOUDY    33  33 100 SE3       29.56S
PHILLIPS       CLOUDY    32  32 100 E5        29.51F FOG     WCI  28
6HR MIN TEMP:  32; 6HR MAX TEMP:  33;

TOMAHAWK       CLOUDY    32  32  99 SE3       29.54S FOG
MEDFORD        CLOUDY    32  32  99 E8        29.50F FOG     WCI  25
MERRILL        CLOUDY    33  33 100 E8          N/A  FOG     WCI  26
6HR MIN TEMP:  33; 6HR MAX TEMP:  33;

$$

WIZ029-030-035-036-043>047-211300-
CENTRAL WISCONSIN

CITY           SKY/WX    TMP DP  RH WIND       PRES   REMARKS
WAUSAU         CLOUDY    33  33 100 SE8       29.52S FOG     WCI  26
6HR MIN TEMP:  32; 6HR MAX TEMP:  33;

MOSINEE        FOG       32  32 100 E7        29.53R VSB 1/4 WCI  26
MARSHFIELD     FOG       33  32  96 E12       29.48F VSB 1/4 WCI  24
6HR MIN TEMP:  33; 6HR MAX TEMP:  33; 6HR PCP: TRACE;

STEVENS POINT  FOG       32  32 100 E6        29.53F VSB 1/2 WCI  26
WAUPACA        CLOUDY    36  35  96 CALM      29.55F FOG
WAUTOMA        NOT AVBL
WISC RAPIDS    CLOUDY    34  34 100 E12       29.50F FOG     WCI  25
6HR MIN TEMP:  34; 6HR MAX TEMP:  34; 6HR PCP:  0.01;

CAMP DOUGLAS   FOG       34  34 100 E6        29.48S VSB 3/4 WCI  29
$$

WIZ011>013-019>022-031-037>040-048>050-211300-
NORTHEAST WISCONSIN

CITY           SKY/WX    TMP DP  RH WIND       PRES   REMARKS
ANTIGO         FOG       32  32 100 E9        29.55F VSB 1/2 WCI  24
SHAWANO        FOG       34  33  95 NE7       29.57F VSB 1/4 WCI  28
OCONTO         CLOUDY    33  33  99 E3        29.60S VSB 1/2
STURGEON BAY   LGT RAIN  36  36 100 SE5       29.61S FOG     WCI  32
GREEN BAY      CLOUDY    37  37 100 E5        29.57F FOG     WCI  33
6HR MIN TEMP:  35; 6HR MAX TEMP:  37; 6HR PCP:  0.01;

MANITOWOC      FOG       36  36 100 MISG      29.59F VSB 3/4
APPLETON         N/A     36  36 100 E7        29.53F FOG     WCI  30
CLINTONVILLE   FOG       34  34 100 NE3       29.56F VSB 1/4
OSHKOSH        CLOUDY    35  34  96 E7        29.53F FOG     WCI  29
6HR MIN TEMP:  34; 6HR MAX TEMP:  35; 6HR PCP:  0.03;

$$

WIZ032>034-041-042-053>061-211300-
SOUTHWEST WISCONSIN

CITY           SKY/WX    TMP DP  RH WIND       PRES   REMARKS
LA CROSSE      LGT RAIN  40  36  86 NE10      29.42F WCI  33
6HR MIN TEMP:  38; 6HR MAX TEMP:  40; 6HR PCP:  0.02;

SPARTA         CLOUDY    34  34 100 E7        29.47F FOG     WCI  28
VIROQUA        CLOUDY    35  35 100 E10       29.43F VSB 1/4 WCI  27
6HR MIN TEMP:  34; 6HR MAX TEMP:  35; 6HR PCP:  0.01;

BOSCOBEL       CLOUDY    37  36  96 NE5       29.46S FOG     WCI  33
6HR MIN TEMP:  37; 6HR MAX TEMP:  37; 6HR PCP:  0.02;

PRAIRIE DU CHI FOG       36  35  96 CALM      29.44R VSB 1
PLATTEVILLE    CLOUDY    38  38 100 E8        29.45S VSB 1/4 WCI  32
$$

WIZ056-057-062-063-064-067-068-211300-
SOUTH CENTRAL WISCONSIN

CITY           SKY/WX    TMP DP  RH WIND       PRES   REMARKS
REEDSBURG      FOG       34  34 100 E5        29.48F VSB 1/2 WCI  30
BARABOO/DELLS  FOG       34  34  99 E7        29.48F VSB<1/4 WCI  28
LONE ROCK      NOT AVBL
MINERAL POINT  SNOW      39  39 100 E8        29.44F VSB 1/4 WCI  34
MADISON        FOG       38  38 100 E7        29.49F VSB 3/4 WCI  33
6HR MIN TEMP:  35; 6HR MAX TEMP:  38; 6HR PCP: TRACE;

MIDDLETON      CLOUDY    38  38 100 E5        29.49S VSB 1/4 WCI  34
WATERTOWN      CLOUDY    37  37 100 E7        29.50F FOG     WCI  32
MONROE         FOG       37  37 100 E6        29.46F VSB 1/4 WCI  33
JANESVILLE     FOG       41  41 100 SE6       29.48F VSB 1
$$

WIZ051-052-058>065-066-070>072-211300-
SOUTHEAST WISCONSIN

CITY           SKY/WX    TMP DP  RH WIND       PRES   REMARKS
MILWAUKEE      FOG       40  38  93 SE5       29.54F VSB 1/4
6HR MIN TEMP:  38; 6HR MAX TEMP:  40; 6HR PCP:  0.03;

WAUKESHA       FOG       36  36 100 E5        29.53F VSB 1/4 WCI  32
MILWAUKEE/TIMM FOG       36  34  93 E3        29.54F VSB 1/2
RACINE         FOG       41  39  93 S6        29.55F VSB 1/4
6HR MIN TEMP:  38; 6HR MAX TEMP:  41; 6HR PCP:  0.01;

KENOSHA        FOG       43  43 100 SE5       29.53F VSB 1/2
6HR MIN TEMP:  38; 6HR MAX TEMP:  43; 6HR PCP:  0.01;

FOND DU LAC    CLOUDY    38  35  89 E6        29.52F FOG     WCI  33
6HR MIN TEMP:  34; 6HR MAX TEMP:  38; 6HR PCP: TRACE;

SHEBOYGAN      MIX PCPN  35  34  96 NE8       29.55F VSB 1/2 WCI  29
6HR MIN TEMP:  35; 6HR MAX TEMP:  36; 6HR PCP:  0.05;

WEST BEND      DRZL/FOG  36  36 100 NE6       29.53F VSB 1/4 WCI  31
JUNEAU         FOG       37  36  99 E8        29.52F VSB 1/4 WCI  30
$$

LSZ147-162-211300-
LAKE SUPERIOR

STATION/POSITION TIME  TEMP    WIND        PRES    WAVE
                       AIR SEA DIR/SP/G            HT/PER
                 (UTC) (F)     (DEG/KT/KT) (MB)    (FT/S)
DEVILS ISLAND    1100   35     120/  7/  7 1001.3F
PORT WING        1140   33      CALM  /  1 1000.7S
SAXON HARBOR     1140   33      CALM  /  1 1001.0R
$$

LMZ867-665-643>646-211300-
LAKE MICHIGAN

STATION/POSITION TIME  TEMP    WIND        PRES    WAVE
                       AIR SEA DIR/SP/G            HT/PER
                 (UTC) (F)     (DEG/KT/KT) (MB)    (FT/S)
NORTHPORT PIER   1140   34     150/  5/  7 1003.7R
SISTER BAY       1120   35     150/  1/  6   N/A
KEWAUNEE LAKESHO 1130   36      80/  2/  5 1001.9S
SHEBOYGAN LAKESH 1100   36      20/  4/  5 1001.7F
PORT WASHINGTON  1130   38      30/  4/  6 1002.0F
KENOSHA   LAKESH 1100   38     160/  4/  4 1001.0
$$

TC  - TEMPERATURE IN CELSIUS
VSB - VISIBILITY IN STATUTE MILES
WCI - WIND CHILL INDEX
HX  - HEAT INDEX





USA.gov is the U.S. government's official web portal to all federal, state and local government web resources and services.